TimeCST,TemperatureF,Dew PointF,Humidity,Sea Level PressureIn,VisibilityMPH,Wind Direction,Wind SpeedMPH,Gust SpeedMPH,PrecipitationIn,Events,Conditions,WindDirDegrees,DateUTC
12:53 AM,19.0,12.0,74,30.03,7.0,WNW,21.9,29.9,0.00,Snow,Light Snow,290,2012-11-12 06:53:00
1:53 AM,19.0,12.0,74,30.03,5.0,West,18.4,25.3,0.00,Snow,Light Snow,280,2012-11-12 07:53:00
2:53 AM,19.0,10.9,71,30.05,9.0,WNW,16.1,27.6,0.00,,Overcast,300,2012-11-12 08:53:00
3:53 AM,18.0,9.0,68,30.06,10.0,WNW,23.0,33.4,N/A,,Overcast,300,2012-11-12 09:53:00
4:53 AM,16.0,8.1,71,30.09,10.0,NW,17.3,-,N/A,,Overcast,310,2012-11-12 10:53:00
5:53 AM,12.9,5.0,71,30.11,10.0,NW,17.3,-,N/A,,Scattered Clouds,310,2012-11-12 11:53:00
6:53 AM,12.0,3.9,70,30.13,10.0,WNW,13.8,20.7,N/A,,Clear,300,2012-11-12 12:53:00
7:53 AM,12.0,3.9,70,30.15,10.0,WNW,13.8,-,N/A,,Clear,300,2012-11-12 13:53:00
8:53 AM,14.0,5.0,67,30.18,10.0,WNW,15.0,-,N/A,,Clear,300,2012-11-12 14:53:00
10:53 AM,19.9,9.0,62,30.21,10.0,NW,16.1,-,N/A,,Clear,310,2012-11-12 16:53:00
11:53 AM,21.9,10.0,60,30.22,10.0,NW,13.8,23.0,N/A,,Clear,310,2012-11-12 17:53:00
12:53 PM,24.1,10.0,55,30.22,10.0,WNW,13.8,-,N/A,,Clear,300,2012-11-12 18:53:00
1:53 PM,26.1,12.0,55,30.22,10.0,West,11.5,-,N/A,,Clear,280,2012-11-12 19:53:00
2:53 PM,27.0,12.0,53,30.24,10.0,West,10.4,-,N/A,,Clear,280,2012-11-12 20:53:00
3:53 PM,26.1,12.0,55,30.25,10.0,West,9.2,-,N/A,,Clear,260,2012-11-12 21:53:00
4:53 PM,24.1,12.9,62,30.27,10.0,SW,4.6,-,N/A,,Clear,230,2012-11-12 22:53:00
5:53 PM,18.0,10.9,74,30.30,10.0,WSW,5.8,-,N/A,,Clear,240,2012-11-12 23:53:00
6:53 PM,18.0,10.9,74,30.29,10.0,South,6.9,-,N/A,,Clear,190,2012-11-13 00:53:00
7:53 PM,16.0,10.0,77,30.29,10.0,SSW,8.1,-,N/A,,Clear,200,2012-11-13 01:53:00
8:53 PM,16.0,10.0,77,30.30,10.0,South,8.1,-,N/A,,Clear,180,2012-11-13 02:53:00
9:53 PM,16.0,10.9,81,30.29,10.0,South,6.9,-,N/A,,Clear,180,2012-11-13 03:53:00
10:53 PM,14.0,9.0,80,30.28,10.0,SSE,6.9,-,N/A,,Clear,160,2012-11-13 04:53:00
11:53 PM,12.0,8.1,84,30.29,10.0,SSE,6.9,-,N/A,,Clear,160,2012-11-13 05:53:00